Weather Roundup
Issued by NWS Springfield, MO

Home | Current Version | Previous Version | Text Only | Print | Product List | Glossary On
Versions: 1 2 3 4 5 6 7 8 9 10 11 12 13 14 15 16 17 18 19 20 21 22 23 24 25 26 27 28 29 30 31 32 33 34 35 36 37 38 39 40 41 42 43 44 45 46 47 48 49 50
000
NZUS99 KSGF 292307
HRRSGF

HOURLY WEATHER
NATIONAL WEATHER SERVICE SPRINGFIELD MO
600 PM CDT SUN MAY 29 2016

......SGF CWA......

CITY           SKY/WX    TMP DP  RH WIND       PRES   REMARKS
SPRINGFIELD    CLOUDY    83  61  47 N5        30.08F
JOPLIN         CLOUDY    82  67  60 N3        30.06F
WEST PLAINS    CLOUDY    83  60  45 CALM      30.11F
ROLLA          SUNNY     83  62  49 NE3       30.07S
BRANSON        PTSUNNY   82  61  47 CALM      30.11S

......SURROUNDING SGF CWA......

CITY           SKY/WX    TMP DP  RH WIND       PRES   REMARKS
CHANUTE        CLOUDY    80  69  69 S3        30.05F
PARSONS        CLOUDY    79  70  74 W3        30.08S
COFFEYVILLE    CLOUDY    78  71  79 NW6       30.05F
EMPORIA        SUNNY     77  65  66 S9        30.05F
GROVE OK       CLOUDY    82  70  65 CALM      30.06F
ROGERS AR        N/A     79  67  66 SE6       30.09F
SILOAM SPRINGS MOSUNNY   79  63  57 SE5       30.08F
HARRISON AR    SUNNY     82  61  48 VRB3      30.11F
NEAR YELLVILLE PTSUNNY  N/A N/A N/A E3        30.05F

......KANSAS AND MISSOURI......

CITY           SKY/WX    TMP DP  RH WIND       PRES   REMARKS
KANSAS CTY INT CLOUDY    80  64  58 S5        30.04F
DOWNTOWN KC    CLOUDY    84  57  39 W5        30.02F
COLUMBIA       MOSUNNY   84  58  40 W3        30.06F
SEDALIA        CLOUDY    85  59  41 NW3       30.07S
ST JOSEPH      CLOUDY    85  59  41 S9        30.01F
ST LOUIS       MOSUNNY   85  56  37 NW9       30.05F
SPIRIT OF STL  MOSUNNY   86  58  38 NW9       30.03F
KIRKSVILLE     MOSUNNY   82  62  50 W5        30.05F
WICHITA        PTSUNNY   75  58  55 SE20G28   30.05R
TOPEKA         CLOUDY    80  62  54 SE7       30.02F
OLATHE         MOSUNNY   81  61  50 S5        30.05F

......TENNESSEE......

CITY           SKY/WX    TMP DP  RH WIND       PRES   REMARKS
MEMPHIS        CLOUDY    85  66  53 NW7       30.05F
NASHVILLE      MOSUNNY   87  63  44 SW6       30.03F

......ARKANSAS.......

CITY           SKY/WX    TMP DP  RH WIND       PRES   REMARKS
FAYETTEVILLE   SUNNY     83  61  47 E6        30.08S
FT SMITH       MOSUNNY   84  66  54 E7        30.03F
LITTLE ROCK    CLOUDY    72  65  78 VRB5      30.07F

......OKLAHOMA.......

CITY           SKY/WX    TMP DP  RH WIND       PRES   REMARKS
TULSA          LGT RAIN  79  65  62 N9        30.00F
PONCA CITY     SUNNY     79  61  53 NE10      30.04R
MCALESTER      CLOUDY    82  70  66 CALM      30.03S
OKLAHOMA CITY  PTSUNNY   84  62  47 SE9       30.01F

......IOWA............

CITY           SKY/WX    TMP DP  RH WIND       PRES   REMARKS
DES MOINES     MOSUNNY   83  52  34 W8        30.00F
QUAD CITIES    SUNNY     82  57  42 W9        30.00F

......ILLINOIS........

CITY           SKY/WX    TMP DP  RH WIND       PRES   REMARKS
QUINCY         SUNNY     83  58  42 W8        30.04F
CHICAGO        MOSUNNY   77  58  51 W13G23    29.97F




USA.gov is the U.S. government's official web portal to all federal, state and local government web resources and services.